Casper, WY

10:00 PM MST on December 13, 2019 (GMT -0700)
Natrona County International

Weather History for KCPR - October, 2019

Change the Weather History Date:

Thursday, October 10, 2019

  Actual Average Record
Temperature  
Mean Temperature 20 °F 47 °F  
Max Temperature 24 °F 62 °F 85 °F (2015)
Min Temperature 15 °F 32 °F 11 °F (2009)
Degree Days  
Heating Degree Days 45 18  
Month to date heating degree days 214 164  
Since 1 July heating degree days 385 449  
Cooling Degree Days 0 0  
Month to date cooling degree days 0 0  
Year to date cooling degree days 441 422  
Moisture  
Dew Point 14 °F    
Average Humidity 80    
Maximum Humidity 92    
Minimum Humidity 68    
Precipitation  
Precipitation 0.04 in 0.04 in 0.33 in (2008)
Month to date precipitation 0.42 0.39  
Year to date precipitation 11.12 10.55  
Snow  
Snow 1.60 in 0.20 in - ()
Month to date snowfall 2.4 2.0  
Since 1 July snowfall 2.4 3.8  
Since 1 September snowfall 2.4 3.8  
Snow Depth 1.00 in    
Sea Level Pressure  
Sea Level Pressure 30.31 in    
Wind  
Wind Speed 8 mph (North)    
Max Wind Speed 20 mph    
Max Gust Speed 24 mph    
Visibility 6 miles    
Events Fog , Snow    
T = Trace of Precipitation, MM = Missing Value Source: NWS Daily Summary

Daily Weather History Graph

Daily Weather History Graph

Search for Another Location

Airport or City:

Astronomy

Oct. 10, 2019 Rise Set
Actual Time 7:13 AM MDT 6:31 PM MDT
Civil Twilight 6:44 AM MDT 7:00 PM MDT
Nautical Twilight 6:11 AM MDT 7:32 PM MDT
Astronomical Twilight 5:39 AM MDT 8:05 PM MDT
Moon 5:40 PM MDT (10/10) 3:52 AM MDT (10/10)
Length of Visible Light 12h 15m
Length of Day
11h 18m
Waxing Gibbous, 91% of the Moon is Illuminated
Oct 10
Waxing Gibbous
Oct 13
Full
Oct 21
Last Quarter
Oct 27
New
Nov 4
First Quarter

Hourly Weather History & Observations

Time (MDT) Temp. Windchill Dew Point Humidity Pressure Visibility Wind Dir Wind Speed Gust Speed Precip Events Conditions
12:14 AM 19.0 °F 4.5 °F 15.1 °F 85% 30.16 in 1.8 mi NNE 16.1 mph - 0.00 in Snow Light Snow
12:23 AM 19.0 °F 6.1 °F 15.1 °F 85% 30.16 in 1.2 mi NNE 12.7 mph - 0.01 in Snow Light Snow
12:53 AM 19.0 °F 8.2 °F 16.0 °F 88% 30.28 in 2.0 mi NE 9.2 mph - 0.02 in Snow Light Snow
1:04 AM 19.0 °F 7.5 °F 16.0 °F 88% 30.17 in 3.0 mi NNE 10.4 mph - 0.00 in Snow Light Snow
1:16 AM 19.0 °F 4.5 °F 15.1 °F 85% 30.17 in 2.0 mi NNE 16.1 mph - 0.01 in Snow Light Snow
1:53 AM 18.0 °F 4.2 °F 15.1 °F 88% 30.30 in 3.0 mi NE 13.8 mph - 0.01 in Snow Light Snow
2:01 AM 18.0 °F 4.2 °F 15.1 °F 88% 30.18 in 2.5 mi NE 13.8 mph - 0.00 in Snow Light Snow
2:08 AM 18.0 °F 4.8 °F 15.1 °F 88% 30.19 in 3.0 mi NE 12.7 mph - 0.00 in Snow Light Snow
2:25 AM 18.0 °F 4.2 °F 14.0 °F 84% 30.19 in 6.0 mi NNE 13.8 mph - 0.00 in Snow Light Snow
2:53 AM 18.0 °F 4.8 °F 14.0 °F 84% 30.31 in 8.0 mi NNE 12.7 mph - 0.00 in Snow Light Snow
3:53 AM 18.0 °F 4.8 °F 12.9 °F 81% 30.32 in 5.0 mi NNE 12.7 mph - 0.00 in Snow Light Snow
4:53 AM 18.0 °F 6.9 °F 12.9 °F 81% 30.34 in 6.0 mi NE 9.2 mph - 0.00 in Snow Light Snow
5:53 AM 17.1 °F 6.6 °F 12.9 °F 84% 30.35 in 7.0 mi North 8.1 mph - 0.00 in Snow Light Snow
6:07 AM 17.1 °F 7.6 °F 12.0 °F 81% 30.21 in 9.0 mi NNE 6.9 mph - 0.00 in   Overcast
6:44 AM 17.1 °F 7.6 °F 12.0 °F 81% 30.22 in 9.0 mi NNE 6.9 mph - 0.00 in Snow Light Snow
6:53 AM 17.1 °F 7.6 °F 12.0 °F 81% 30.38 in 9.0 mi NNE 6.9 mph - 0.00 in   Overcast
7:26 AM 17.1 °F 10.0 °F 12.9 °F 84% 30.23 in 8.0 mi North 4.6 mph - 0.00 in Snow Light Snow
7:53 AM 17.1 °F 5.8 °F 12.0 °F 81% 30.41 in 6.0 mi NNE 9.2 mph - 0.00 in Snow Light Snow
8:53 AM 17.1 °F 7.6 °F 12.0 °F 81% 30.42 in 5.0 mi NNE 6.9 mph - 0.00 in Snow Light Snow
9:53 AM 19.0 °F 8.2 °F 12.0 °F 74% 30.42 in 5.0 mi NNE 9.2 mph - 0.00 in Snow Light Snow
10:53 AM 19.9 °F 10.1 °F 12.0 °F 71% 30.42 in 10.0 mi North 8.1 mph - 0.00 in   Overcast
11:53 AM 21.0 °F 12.4 °F 12.0 °F 68% 30.40 in 10.0 mi NNW 6.9 mph - N/A   Overcast
12:53 PM 21.0 °F 12.4 °F 12.0 °F 68% 30.40 in 10.0 mi NW 6.9 mph - N/A   Overcast
1:51 PM 21.2 °F 14.9 °F 12.2 °F 68% 30.22 in 10.0 mi NNW 4.6 mph - 0.00 in   Overcast
1:53 PM 21.9 °F 15.7 °F 12.9 °F 68% 30.38 in 10.0 mi NW 4.6 mph - 0.00 in   Overcast
2:03 PM 21.9 °F 15.7 °F 12.9 °F 68% 30.22 in 7.0 mi North 4.6 mph - 0.00 in Snow Light Snow
2:17 PM 21.0 °F 16.2 °F 14.0 °F 74% 30.22 in 2.0 mi WNW 3.5 mph - 0.00 in Snow Light Snow
2:27 PM 21.9 °F 17.2 °F 14.0 °F 72% 30.22 in 4.0 mi Variable 3.5 mph - 0.00 in Snow Light Snow
2:36 PM 21.0 °F 16.2 °F 14.0 °F 74% 30.22 in 2.0 mi Variable 3.5 mph - 0.01 in Snow Light Snow
2:46 PM 21.9 °F - 16.0 °F 78% 30.22 in 4.0 mi Calm Calm - 0.01 in Snow Light Snow
2:53 PM 21.9 °F 17.2 °F 15.1 °F 75% 30.38 in 7.0 mi NNW 3.5 mph - 0.01 in Snow Light Snow
3:53 PM 23.0 °F - 15.1 °F 72% 30.37 in 10.0 mi Calm Calm - 0.00 in   Overcast
4:39 PM 23.0 °F 15.8 °F 15.1 °F 72% 30.23 in 10.0 mi NNE 5.8 mph - N/A   Overcast
4:53 PM 23.0 °F 13.9 °F 15.1 °F 72% 30.38 in 6.0 mi NW 8.1 mph - 0.00 in Snow Light Snow
4:57 PM 21.9 °F 9.2 °F 16.0 °F 78% 30.24 in 1.2 mi WNW 13.8 mph 19.6 mph 0.00 in Snow Light Snow
5:07 PM 19.9 °F 9.3 °F 17.1 °F 89% 30.24 in 0.5 mi West 9.2 mph - 0.01 in Fog , Snow Snow
5:13 PM 21.0 °F 11.4 °F 17.1 °F 85% 30.24 in 2.0 mi West 8.1 mph - 0.01 in Snow Light Snow
5:31 PM 19.9 °F 12.1 °F 16.0 °F 85% 30.24 in 0.5 mi WNW 5.8 mph 16.1 mph 0.02 in Fog , Snow Snow
5:38 PM 21.0 °F 12.4 °F 16.0 °F 81% 30.24 in 2.5 mi WNW 6.9 mph - 0.02 in Snow Light Snow
5:53 PM 21.0 °F 12.4 °F 14.0 °F 74% 30.41 in 2.5 mi NW 6.9 mph - 0.02 in Snow Light Snow
6:00 PM 21.0 °F 12.4 °F 14.0 °F 74% 30.24 in 9.0 mi NNW 6.9 mph - 0.00 in   Overcast
6:53 PM 21.0 °F 11.4 °F 15.1 °F 78% 30.42 in 9.0 mi NNW 8.1 mph - 0.00 in   Overcast
7:03 PM 19.9 °F 12.1 °F 15.1 °F 81% 30.25 in 4.0 mi North 5.8 mph - 0.00 in Snow Light Snow
7:53 PM 19.9 °F 14.9 °F 15.1 °F 81% 30.43 in 10.0 mi NW 3.5 mph - 0.00 in   Overcast
8:53 PM 19.9 °F 14.9 °F 16.0 °F 85% 30.43 in 10.0 mi SW 3.5 mph - N/A   Mostly Cloudy
9:53 PM 18.0 °F 12.7 °F 16.0 °F 92% 30.43 in 10.0 mi SSW 3.5 mph - N/A   Scattered Clouds
10:53 PM 16.0 °F 5.3 °F 10.9 °F 81% 30.44 in 10.0 mi WSW 8.1 mph - N/A   Clear
11:53 PM 16.0 °F 2.3 °F 10.9 °F 81% 30.43 in 10.0 mi WSW 12.7 mph - N/A   Clear